Time+07,TemperatureF,Dew PointF,Humidity,Sea Level PressureIn,VisibilityMPH,Wind Direction,Wind SpeedMPH,Gust SpeedMPH,PrecipitationIn,Events,Conditions,WindDirDegrees,DateUTC
12:00 AM,76,68,71,29.89,,SE,9.2,,,,,130,2012-11-21 17:00:00
12:00 AM,75.2,68.0,78,29.92,6.2,SE,9.2,-,N/A,,Scattered Clouds,130,2012-11-21 17:00:00
1:00 AM,76,67,68,29.87,,SE,9.2,,,,,130,2012-11-21 18:00:00
1:00 AM,75.2,68.0,78,29.92,6.2,SE,9.2,-,N/A,,Scattered Clouds,130,2012-11-21 18:00:00
2:00 AM,75.2,68.0,78,29.89,6.2,SE,8.1,-,N/A,,Mostly Cloudy,140,2012-11-21 19:00:00
3:00 AM,75,68,74,29.85,,SE,8.1,,,,,140,2012-11-21 20:00:00
3:00 AM,75.2,68.0,78,29.89,6.2,SE,8.1,-,N/A,,Scattered Clouds,140,2012-11-21 20:00:00
4:00 AM,75,69,78,29.85,,SE,6.9,,,,,130,2012-11-21 21:00:00
4:00 AM,75.2,69.8,83,29.89,6.2,SE,6.9,-,N/A,,Mostly Cloudy,130,2012-11-21 21:00:00
5:00 AM,75.2,69.8,83,29.89,6.2,SE,8.1,-,N/A,,Mostly Cloudy,130,2012-11-21 22:00:00
6:00 AM,76,69,73,29.88,,SE,8.1,,,,Overcast,140,2012-11-21 23:00:00
6:00 AM,75.2,69.8,83,29.92,6.2,SE,8.1,-,N/A,,Mostly Cloudy,140,2012-11-21 23:00:00
7:00 AM,79,68,62,29.89,,SE,11.5,,,,,140,2012-11-22 00:00:00
7:00 AM,78.8,68.0,69,29.92,6.2,SE,11.5,-,N/A,,Scattered Clouds,140,2012-11-22 00:00:00
8:00 AM,78.8,69.8,74,29.92,6.2,SE,11.5,-,N/A,,Overcast,140,2012-11-22 01:00:00
9:00 AM,81,53,27,29.91,,SE,12.7,,,,,130,2012-11-22 02:00:00
9:00 AM,80.6,53.6,39,29.95,6.2,SE,12.7,-,N/A,,Scattered Clouds,130,2012-11-22 02:00:00
10:00 AM,81,68,56,29.90,,SE,11.5,,,,,140,2012-11-22 03:00:00
10:00 AM,80.6,68.0,65,29.95,6.2,SE,11.5,-,N/A,,Scattered Clouds,140,2012-11-22 03:00:00
11:00 AM,80.6,59.0,48,29.92,6.2,SE,13.8,-,N/A,,Mostly Cloudy,140,2012-11-22 04:00:00
12:00 PM,81,53,27,29.88,,SE,15.0,,,,,130,2012-11-22 05:00:00
12:00 PM,80.6,53.6,39,29.92,6.2,SE,15.0,-,N/A,,Scattered Clouds,130,2012-11-22 05:00:00
1:00 PM,82,52,25,29.86,,SE,12.7,,,,,140,2012-11-22 06:00:00
1:00 PM,82.4,51.8,35,29.89,6.2,SE,12.7,-,N/A,,Mostly Cloudy,140,2012-11-22 06:00:00
2:00 PM,80.6,62.6,54,29.86,6.2,SSE,12.7,-,N/A,,Scattered Clouds,150,2012-11-22 07:00:00
3:00 PM,80,61,43,29.82,,SSE,11.5,,,,Overcast,150,2012-11-22 08:00:00
3:00 PM,80.6,60.8,51,29.86,6.2,SSE,11.5,-,N/A,,Mostly Cloudy,150,2012-11-22 08:00:00
4:00 PM,81,63,44,29.81,,SSE,10.4,,,,,160,2012-11-22 09:00:00
4:00 PM,80.6,62.6,54,29.83,6.2,SSE,10.4,-,N/A,,Scattered Clouds,160,2012-11-22 09:00:00
5:00 PM,78.8,66.2,65,29.86,6.2,SE,13.8,-,N/A,,Scattered Clouds,140,2012-11-22 10:00:00
6:00 PM,76,66,65,29.83,,SE,11.5,,,,,140,2012-11-22 11:00:00
6:00 PM,77.0,66.2,69,29.86,6.2,SE,11.5,-,N/A,,Scattered Clouds,130,2012-11-22 11:00:00
7:00 PM,76,68,70,29.86,,SE,11.5,,,,,130,2012-11-22 12:00:00
7:00 PM,77.0,68.0,74,29.89,6.2,SE,11.5,-,N/A,,Scattered Clouds,130,2012-11-22 12:00:00
8:00 PM,77.0,68.0,74,29.92,6.2,SE,11.5,-,N/A,,Scattered Clouds,130,2012-11-22 13:00:00
9:00 PM,76,69,72,29.91,,SE,9.2,,,,,130,2012-11-22 14:00:00
9:00 PM,77.0,68.0,74,29.95,6.2,SE,9.2,-,N/A,,Scattered Clouds,130,2012-11-22 14:00:00
10:00 PM,76,69,75,29.91,,SE,10.4,,,,,130,2012-11-22 15:00:00
10:00 PM,75.2,69.8,83,29.95,6.2,SE,10.4,-,N/A,,Scattered Clouds,130,2012-11-22 15:00:00
11:00 PM,75.2,69.8,83,29.95,6.2,SE,9.2,-,N/A,,Mostly Cloudy,130,2012-11-22 16:00:00